Location: 埔里
(23.9503°N, 120.9728°E)
Time: 16:30:33
(UTC+08:00)

X-37B - Visible Passes

Search period start: 04 August 2020 00:00
Search period end: 14 August 2020 00:00
Orbit: 384 x 389 km, 45.0° (Epoch: 29 July)

Date Brightness Start Highest point End Pass type
(mag) Time Alt. Az. Time Alt. Az. Time Alt. Az.
04 Aug ? 03:42:27 10° N 03:44:23 15° NNE 03:46:19 10° ENE visible
04 Aug ? 20:10:50 10° SW 20:13:32 59° W 20:13:32 59° W visible
05 Aug ? 04:19:25 10° NW 04:22:34 77° NE 04:25:44 10° SE visible
05 Aug ? 19:12:29 10° SSW 19:15:27 40° SE 19:18:25 10° ENE visible
05 Aug ? 20:50:21 10° WNW 20:52:09 14° NNW 20:52:09 14° NNW visible
06 Aug ? 03:25:19 21° E 03:25:19 21° E 03:26:49 10° ESE visible
06 Aug ? 04:58:27 10° W 05:00:24 15° SW 05:02:22 10° S visible
06 Aug ? 19:50:41 10° W 19:53:27 28° NW 19:56:15 10° NNE visible
07 Aug ? 04:04:23 14° SSE 04:04:23 14° SSE 04:04:56 10° SSE visible
07 Aug ? 18:51:43 10° SW 18:54:51 71° NW 18:58:00 10° NE visible
08 Aug ? 19:31:16 10° WNW 19:33:04 14° NNW 19:34:52 10° N visible
